Hourly Data Report for May 22, 2012

All times are specified in Local Standard Time (LST). Add 1 hour to adjust for Daylight Saving Time where and when it is observed.

SAULT STE MARIE A
ONTARIO

46°29'06.000" N
84°30'35.000" W
192.00 m
6057591
71260
YAM

Download Data

Hourly Data (May 2012)
Hourly Data Report for May 22, 2012
Temp Definition
°C
Dew Point Temp Definition
°C
Rel Hum Definition
%
Wind Dir Definition
10's deg

Wind Spd Definition
km/h
Visibility Definition
km
Stn Press Definition
kPa
Hmdx Definition


Wind Chill Definition


Weather Definition


TIME
00:00 6.7 5.2 90 29 11 10.0 99.73     LegendNANA
01:00 6.2 5.0 92 31 13 10.0 99.72     Clear
02:00 3.2 2.6 96 31 4 10.0 99.72     LegendNANA
03:00 5.4 4.1 91 30 6 10.0 99.67     LegendNANA
04:00 5.5 5.2 98 30 12 10.0 99.67     Clear
05:00 5.8 5.4 97 30 11 10.0 99.69     LegendNANA
06:00 7.0 6.0 93 28 13 10.0 99.69     LegendNANA
07:00 8.5 6.8 89 29 12 10.0 99.70     Mainly Clear
08:00 10.1 6.8 80 30 10 10.0 99.71     LegendNANA
09:00 10.7 7.4 80 30 14 10.0 99.71     LegendNANA
10:00 11.9 7.1 72 30 19 10.0 99.67     Mainly Clear
11:00 12.4 7.7 73 29 19 10.0 99.60     LegendNANA
12:00 15.8 7.9 59 28 15 10.0 99.51     LegendNANA
13:00 15.7 7.5 58 30 21 10.0 99.43     Mainly Clear
14:00 17.1 6.7 50 29 21 10.0 99.36     LegendNANA
15:00 19.6 4.3 36 30 22 10.0 99.30     LegendNANA
16:00 19.7 4.0 35 33 20 10.0 99.26     Mostly Cloudy
17:00 19.2 3.5 35 34 26 10.0 99.22     LegendNANA
18:00 17.1 2.0 36 35 25 10.0 99.18     LegendNANA
19:00 16.9 1.8 36 36 23 10.0 99.15     Mostly Cloudy
20:00 16.3 2.1 38 1 10 10.0 99.14     LegendNANA
21:00 13.6 5.1 56 19 4 10.0 99.15     LegendNANA
22:00 12.6 6.9 68 29 5 10.0 99.14     Mostly Cloudy
23:00 12.5 7.0 69 30 5 10.0 99.15     LegendNANA

Notes on Data Quality.

Legend

  • E = Estimated
  • M = Missing
  • NA = Not Available
Date modified: